Hourly Data Report for October 16, 2015

All times are specified in Local Standard Time (LST). Add 1 hour to adjust for Daylight Saving Time where and when it is observed.

PENTICTON A
BRITISH COLUMBIA

49°27'45.000" N
119°36'08.000" W
344.40 m
1126146
71889
YYF

Download Data

Hourly Data (October 2015)
Hourly Data Report for October 16, 2015
Temp Definition
°C
Dew Point Temp Definition
°C
Rel Hum Definition
%
Wind Dir Definition
10's deg

Wind Spd Definition
km/h
Visibility Definition
km
Stn Press Definition
kPa
Hmdx Definition


Wind Chill Definition


Weather Definition


TIME
00:00 Legend Double Dagger 4.8 0.6 74 1 12 24.1 98.14     LegendNANA
01:00 Legend Double Dagger 5.1 0.7 73 36 10 24.1 98.13     Mainly Clear
02:00 Legend Double Dagger 5.3 0.9 73 36 9 24.1 98.12     LegendNANA
03:00
04:00 Legend Double Dagger 4.4 0.9 78 2 10 24.1 98.08     Mainly Clear
05:00 Legend Double Dagger 3.4 0.5 81 1 5 24.1 98.08     LegendNANA
06:00 Legend Double Dagger 3.6 0.7 81 2 8 24.1 98.07     LegendNANA
07:00 Legend Double Dagger 3.3 0.7 83 1 9 24.1 98.05     Mostly Cloudy
08:00 Legend Double Dagger 8.8 3.7 70 34 10 24.1 98.07     LegendNANA
09:00 Legend Double Dagger 10.4 4.8 68 35 14 24.1 98.05     LegendNANA
10:00 Legend Double Dagger 11.8 5.3 64 36 13 24.1 98.02     Mostly Cloudy
11:00 Legend Double Dagger 12.9 4.7 57 35 12 24.1 97.96     LegendNANA
12:00 Legend Double Dagger 14.8 4.3 49 34 10 24.1 97.90     LegendNANA
13:00 Legend Double Dagger 15.3 4.4 48 35 11 24.1 97.81     Mostly Cloudy
14:00 Legend Double Dagger 15.8 5.5 50 36 12 24.1 97.73     LegendNANA
15:00 Legend Double Dagger 15.4 3.9 46 34 12 24.1 97.67     LegendNANA
16:00 Legend Double Dagger 14.4 4.2 50 34 12 24.1 97.61     Mostly Cloudy
17:00 Legend Double Dagger 11.4 4.2 61 34 10 24.1 97.56     LegendNANA
18:00 Legend Double Dagger 8.9 3.3 68 35 7 24.1 97.56     LegendNANA
19:00 Legend Double Dagger 7.7 2.8 71 36 12 24.1 97.58     Mainly Clear
20:00 Legend Double Dagger 6.7 1.8 71 34 10 24.1 97.55     LegendNANA
21:00 Legend Double Dagger 6.5 2.8 77 1 8 24.1 97.54     LegendNANA
22:00 Legend Double Dagger 5.5 3.2 85 2 8 24.1 97.54     Mainly Clear
23:00 Legend Double Dagger 4.8 2.2 83 2 8 24.1 97.53     LegendNANA

Notes on Data Quality.

Legend

  • E = Estimated
  • M = Missing
  • NA = Not Available
  • ‡ = Partner data that is not subject to review by the National Climate Archives
Date modified: